Flag for Germany Weather past 2 weeks in Westerland, Schleswig-Holstein, Germany

Now
45 °F

Drizzle. Low clouds.


Feels Like: 42 °F
Forecast: 43 / 50 °F
Wind: 6 mph from North

Location: List / Sylt

Current Time: Apr 26, 2015 at 3:44:12 AM

Latest Report: Apr 26, 2015 at 3:00 AM


Visibility: 15 mi

Pressure: 29.67 "Hg

Humidity: 95%

Dew point: 44 °F

Location of WesterlandLocation

Historic Weather in Westerland — Graph

°F

Westerland temperature yesterday

Maximum temperature yesterday: 51 °F (at 3:00 PM)
Minimum temperature yesterday: 45 °F (at 12:00 AM)
Average temperature yesterday: 49 °F

Past Weeks' High & Low Weather Summary

 TemperatureHumidityPressure
High59 °F (Apr 20, 1:00 PM)100% (Apr 11, 6:00 PM)30.40 "Hg (Apr 11, 6:00 PM)
Low40 °F (Apr 13, 9:00 AM)46% (Apr 20, 4:00 PM)29.62 "Hg (Apr 25, 4:00 PM)
Average47 °F83%30.10 "Hg
* Reported Apr 11 2:00 AM — Apr 26 2:00 AM, Westerland, Weather by CustomWeather, © 2015

Note: Actual official high and low records may vary slightly from our data, if they occured in-between our weather recording intervals... More about our weather records

Advertising

Westerland weather history for previous 24 hours

 ConditionsComfort  
Time TempWeatherWind HumidityBarometerVisibility
2:00 AM
Sun, Apr 26
47 °FLow clouds.6 mph100%29.66 "Hg1 mi
1:00 AM47 °FLow clouds.7 mph99%29.66 "Hg2 mi
12:00 AM48 °FFog.8 mph99%29.66 "Hg2 mi
10:00 PM
Sat, Apr 25
48 °FLow clouds.7 mph100%29.64 "Hg1 mi
9:00 PM47 °FLow clouds.7 mph100%29.64 "Hg1 mi
8:00 PM47 °FLow clouds.8 mph100%29.63 "Hg0 mi
7:00 PM47 °FLow clouds.9 mph100%29.63 "Hg1 mi
6:00 PM49 °FLow clouds.8 mph99%29.62 "Hg3 mi
4:00 PM51 °FLight rain. Low clouds.13 mph98%29.62 "Hg2 mi
3:00 PM51 °FLight rain. Low clouds.13 mph96%29.63 "Hg2 mi
2:00 PM51 °FLight rain. Low clouds.13 mph95%29.63 "Hg2 mi
1:00 PM51 °FLight rain. Low clouds.13 mph95%29.65 "Hg2 mi
12:00 PM51 °FLight freezing rain. Low clouds.12 mph95%29.65 "Hg2 mi
10:00 AM50 °FDrizzle. Overcast.9 mph88%29.65 "Hg4 mi
9:00 AM50 °FFog.9 mph89%29.64 "Hg3 mi
8:00 AM49 °FFog.9 mph94%29.63 "Hg2 mi
7:00 AM49 °FFog.10 mph94%29.63 "Hg1 mi
6:00 AM51 °FFog.9 mph84%29.63 "Hg2 mi
4:00 AM50 °FFog.6 mph88%29.67 "Hg4 mi
3:00 AM49 °FFog.8 mph88%29.68 "Hg4 mi
Weather by CustomWeather, © 2015

See weather overviewHow to use our weather pages